Regional Weather Roundup
Issued by NWS

Home | Current Version | Previous Version | Text Only | Print | Product List | Glossary On
Versions: 1 2 3 4 5 6 7 8 9 10 11 12 13 14 15 16 17 18 19 20 21 22 23 24 25 26 27
000
ASUS46 KSEW 211310
RWRWA

WASHINGTON REGIONAL WEATHER ROUNDUP
NATIONAL WEATHER SERVICE SEATTLE WA
600 AM PDT MON MAY 21 2018

NOTE:"FAIR" INDICATES FEW OR NO CLOUDS BELOW 12,000 FEET WITH NO
SIGNIFICANT WEATHER AND/OR OBSTRUCTIONS TO VISIBILITY.

WAZ507-509-555>559-211400-
SEATTLE, TACOMA, EVERETT, AND VICINITY

CITY           SKY/WX    TMP DP  RH WIND       PRES   REMARKS
EVERETT        CLOUDY    50  46  86 NW5       30.07S
BOEING FIELD   CLOUDY    54  46  74 VRB3      30.07S
RENTON         CLOUDY    54  47  77 N5        30.07R
SEATAC AIRPORT CLOUDY    54  48  80 N6        30.07R
JBLM-MCCHORD   CLOUDY    52  52  99 W5        30.07S
PUYALLUP       CLOUDY    52  52 100 CALM      30.07S
BREMERTON      CLOUDY    51  48  89 NE3       30.07S
JBLM-FT LEWIS  NOT AVBL
TACOMA NARROWS CLOUDY    51  48  89 CALM      30.07R
$$

WAZ001-503-506-510-514-515-211400-
NORTH INTERIOR

CITY           SKY/WX    TMP DP  RH WIND       PRES   REMARKS
BELLINGHAM     CLOUDY    52  45  77 CALM      30.05S
FRIDAY HARBOR  CLOUDY    49  47  93 CALM      30.06S
EASTSOUND      CLOUDY    52  48  87 CALM      30.04
PORT ANGELES   MOCLDY    49  46  90 W6        30.07S
EDIZ HOOK      CLOUDY    50  46  83 W7        30.07S
PORT TOWNSEND  NOT AVBL
NAS WHIDBEY    MOCLDY    51  47  86 SW8       30.10S
ARLINGTON      PTCLDY    45  44  97 N3        30.08S
BURLINGTON     CLEAR     45  43  93 CALM      30.07S
$$

WAZ020-022-039-040-504-511-512-211400-
SOUTHWEST INTERIOR

CITY           SKY/WX    TMP DP  RH WIND       PRES   REMARKS
SHELTON        CLOUDY    51  46  83 W6        30.05S
OLYMPIA        CLOUDY    49  47  93 CALM      30.07S
CHEHALIS       CLOUDY    45  45 100 CALM      30.08
KELSO          CLOUDY    50  46  86 CALM      30.08S
VANCOUVER      CLEAR     45  44  97 CALM      30.06S
SCAPPOOSE, OR  MOCLDY    49  44  83 NW6       30.06S
PORTLAND, OR   PTCLDY    51  46  83 NW3       30.06S
$$

WAZ021-516-517-211400-
WASHINGTON COAST

CITY           SKY/WX    TMP DP  RH WIND       PRES   REMARKS
FORKS          CLOUDY    43  42  97 CALM      30.08S
HOQUIAM        CLOUDY    52  45  77 NW8       30.07S
ASTORIA, OR    CLOUDY    53  48  83 N6        30.06F
$$

WAZ019-023-024-040-567>569-211400-
CASCADE MOUNTAINS AND COLUMBIA GORGE

CITY           SKY/WX    TMP DP  RH WIND       PRES   REMARKS
STAMPEDE PASS  NOT AVBL
TROUTDALE, OR  CLOUDY    50  46  86 CALM      30.06S
HOOD RIVER, OR NOT AVBL
THE DALLES, OR CLEAR     56  45  66 W5        29.97R
$$

WAZ026-027-041>044-520-521-211400-
EAST SLOPES

CITY           SKY/WX    TMP DP  RH WIND       PRES   REMARKS
OMAK           CLEAR     54  48  80 N12       29.93S
WENATCHEE      CLEAR     55  43  63 N12       29.94S
ELLENSBURG     CLEAR     53  43  68 NW14      29.95S
YAKIMA         CLEAR     55  43  63 NW7       29.95S
SUNNYSIDE ARPT SUNNY     46  43  91 CALM      29.94
YAKIMA TC      FAIR      53  41  64 E9        29.93R
$$

WAZ028-034-035-211400-
COLUMBIA BASIN

CITY           SKY/WX    TMP DP  RH WIND       PRES   REMARKS
EPHRATA        CLEAR     59  44  57 N6        29.90R
MOSES LAKE     CLEAR     56  48  74 S3        29.92R
PASCO          PTCLDY    57  51  80 CALM      29.93R
RICHLAND ARPT  MOSUNNY   55  48  76 CALM      29.93S
HERMISTON, OR  MOCLDY    61  45  55 SW6       29.94R
$$

WAZ036>038-211400-
NORTHEAST WASHINGTON

CITY           SKY/WX    TMP DP  RH WIND       PRES   REMARKS
SPOKANE GEIGER MOCLDY    57  53  86 S3        29.92R
SPOKANE FELTS  CLOUDY    58  53  84 CALM      29.92R
FAIRCHILD AFB  CLOUDY    56  56 100 SW5       29.92R
COEURDALENE,ID MOCLDY    56  52  86 NE3       29.93R
DEER PARK      PTCLDY    49  47  93 CALM      29.93R
$$

WAZ029>033-211400-
SOUTHEAST WASHINGTON

CITY           SKY/WX    TMP DP  RH WIND       PRES   REMARKS
PULLMAN        CLOUDY    57  53  86 NW3       29.96R
LEWISTON, ID   CLOUDY    60  59  96 CALM      29.91R
WALLA WALLA    CLOUDY    60  47  61 S8        29.95R
PENDLETON, OR  CLOUDY    54  46  74 NW6       29.95R
$$




USA.gov is the U.S. government's official web portal to all federal, state and local government web resources and services.